Location: Karcze
(52.0945°N, 22.4786°E)
Time: 11:41:34
(UTC+00:00)

Cosmos 1656 - Pass Details

Date: 14 July 2020
Orbit: 800 x 848 km, 71.1° (Epoch: 07 August)

Event Time Altitude Azimuth Distance (km) Brightness Sun altitude
Rises 00:44:32 0° 324° (NW) 3,320 7.1 -11.1°
Reaches altitude 10° 00:47:09 10° 315° (NW) 2,385 6.2 -10.9°
Maximum altitude 00:51:56 32° 253° (WSW) 1,339 4.4 -10.5°
Enters shadow 00:56:27 11° 193° (SSW) 2,291 5.4 -10.2°
